Regional Weather Roundup
Issued by NWS Goodland, KS

Home | Current Version | Previous Version | Text Only | Print | Product List | Glossary On
Versions: 1 2 3 4 5 6 7 8 9 10 11 12 13 14 15 16 17 18 19 20 21 22 23 24 25 26 27 28 29 30 31 32 33 34 35 36 37 38 39 40 41 42 43 44 45 46 47 48 49 50
000
ASUS43 KGLD 290508
RWRGLD

GOODLAND FORECAST AREA HOURLY WEATHER ROUNDUP
NATIONAL WEATHER SERVICE GOODLAND KS
1100 PM MDT SUN AUG 28 2016

...OFFICIAL OBSERVATIONS...

CITY           SKY/WX    TMP DP  RH WIND       PRES   REMARKS
GOODLAND KS    PTCLDY    68  63  84 S10       30.18R
HILL CITY KS   CLOUDY    70  64  81 S6        30.14S
IMPERIAL NEB   CLEAR     65  60  84 MISG      30.16R
MCCOOK NEB     CLOUDY    69  61  75 SE6       30.14R
AKRON CO       CLOUDY    69  45  41 W10       30.22F
BURLINGTON CO  CLOUDY    67  59  75 S12       30.20R
LIMON CO       TSTM      59  55  87 S8        30.30R
$$

...UNOFFICIAL OBSERVATIONS...

CITY           SKY/WX    TMP DP  RH WIND       PRES   REMARKS
COLBY KS       CLEAR     70  64  83 S9        30.18S
LENORA KS        N/A     69  32  25 MISG        N/A
NORTON KS      PTCLDY    70  59  68 S9        30.14R
SHARON SPRINGS   N/A     66  60  82 S9          N/A
TRIBUNE KS     MOCLDY    66  63  88 SE7       30.21R
TRENTON NEB      N/A     68  32  26 MISG        N/A
KIT CARSON CO    N/A     69  60  72 MISG        N/A
YUMA CO          N/A     64  54  71 CALM        N/A
$$




USA.gov is the U.S. government's official web portal to all federal, state and local government web resources and services.